LERT

Details ICAO LERT
Name Rota Ns
Region Spain
Timezone Europe/Madrid (UTC+2.0)
Plans Departing 37
Arriving 34
Stats Elevation 86 ft / 26 m (AMSL)
Location 36.645212° -6.349479°
Runways 1
Magnetic Variation 1.373° W
Sunrise 2018-05-26 05:12:26 UTC / 2018-05-26 07:12:26 Local
Sunset 2018-05-26 19:35:19 UTC / 2018-05-26 21:35:19 Local
Advertisement - Login to hide

Runways

ID Width Length Bearing (true) Bearing (mag) Surface Threshold Offset Overrun Length
10 200 ft / 61 m 12,080 ft / 3,682 m 96.91° 98.28° Asphalt 0 ft / 0 m 148 ft / 45 m
28 200 ft / 61 m 12,080 ft / 3,682 m 276.93° 278.30° Asphalt 0 ft / 0 m 148 ft / 45 m

Approach Navaids

Runway Type Ident Frequency Range Bearing (true) Bearing (mag) Slope Elevation
10 Localiser IAOG 108.70 MHz 18 nm / 33 km 96.96° 98.33° - 86 ft / 26 m (AMSL)
10 Glidescope IAOG 108.70 MHz 10 nm / 19 km 96.92° 98.29° 3.00° 86 ft / 26 m (AMSL)

Map

Weather


0- 5 10 15 20 25 30 35+ Temperature / ° C

Clouds and Precipitation
Forecast for 2018-05-27 00:00 UTC. Updated an hour ago

Ground ~20,000 ft ~40,000 ft Winds

METAR

LERT 270000Z 25007KT 9999 FEW016 18/15 Q1014 NOSIG

TAF

Not found

Frequencies

Ground 130.70 MHz GND
Approach 120.00 MHz SEVILLA APP
Approach 128.50 MHz SEVILLA APP
Tower 119.75 MHz TWR
Approach 120.80 MHz SEVILLA APP
Warning: Do not use this data for real-world aviation or navigation. No guarantee of current accuracy is given.